TimeCDT,TemperatureF,Dew PointF,Humidity,Sea Level PressureIn,VisibilityMPH,Wind Direction,Wind SpeedMPH,Gust SpeedMPH,PrecipitationIn,Events,Conditions,WindDirDegrees,DateUTC
12:56 AM,68.0,64.0,87,29.85,10.0,East,3.5,-,N/A,,Clear,100,2013-06-15 05:56:00
1:56 AM,68.0,64.0,87,29.86,10.0,Calm,Calm,-,N/A,,Clear,0,2013-06-15 06:56:00
2:56 AM,66.0,64.0,93,29.86,10.0,SE,5.8,-,N/A,,Clear,130,2013-06-15 07:56:00
3:56 AM,66.0,63.0,90,29.86,10.0,South,5.8,-,N/A,,Clear,170,2013-06-15 08:56:00
4:56 AM,64.9,62.1,90,29.86,10.0,Calm,Calm,-,N/A,,Partly Cloudy,0,2013-06-15 09:56:00
5:56 AM,62.1,61.0,96,29.86,9.0,NNW,4.6,-,N/A,,Clear,340,2013-06-15 10:56:00
6:56 AM,66.0,63.0,90,29.88,10.0,Calm,Calm,-,N/A,,Partly Cloudy,0,2013-06-15 11:56:00
7:06 AM,66.2,62.6,88,29.90,10.0,ENE,3.5,-,N/A,,Mostly Cloudy,70,2013-06-15 12:06:00
7:42 AM,66.2,64.4,94,29.91,10.0,North,6.9,-,N/A,,Overcast,360,2013-06-15 12:42:00
7:56 AM,66.9,64.0,90,29.91,10.0,North,6.9,-,N/A,,Overcast,350,2013-06-15 12:56:00
8:56 AM,69.1,63.0,81,29.91,10.0,North,17.3,-,0.00,Rain,Light Rain,10,2013-06-15 13:56:00
9:25 AM,68.0,62.6,83,29.93,10.0,NE,6.9,-,0.00,Rain-Thunderstorm,Light Thunderstorms and Rain,50,2013-06-15 14:25:00
9:56 AM,69.1,61.0,75,29.96,10.0,Calm,Calm,-,0.00,Rain-Thunderstorm,Light Thunderstorms and Rain,0,2013-06-15 14:56:00
10:11 AM,66.2,62.6,88,29.99,5.0,North,8.1,-,0.03,Rain,Rain,360,2013-06-15 15:11:00
10:18 AM,66.2,62.6,88,29.98,4.0,North,6.9,-,0.04,Rain-Thunderstorm,Light Thunderstorms and Rain,350,2013-06-15 15:18:00
10:56 AM,64.0,62.1,93,29.99,2.5,South,3.5,-,0.19,Rain-Thunderstorm,Thunderstorms and Rain,190,2013-06-15 15:56:00
11:03 AM,64.4,62.6,94,29.99,4.0,ESE,8.1,-,0.01,Rain-Thunderstorm,Thunderstorms and Rain,120,2013-06-15 16:03:00
11:21 AM,64.4,62.6,94,29.88,4.0,ENE,20.7,-,0.07,Rain,Rain,70,2013-06-15 16:21:00
11:56 AM,66.9,62.1,84,29.88,10.0,NE,16.1,-,0.07,,Partly Cloudy,50,2013-06-15 16:56:00
12:56 PM,72.0,61.0,68,29.91,10.0,NNE,12.7,-,N/A,,Partly Cloudy,20,2013-06-15 17:56:00
1:56 PM,73.9,61.0,64,29.94,10.0,ENE,3.5,-,N/A,,Partly Cloudy,60,2013-06-15 18:56:00
2:56 PM,77.0,62.1,60,29.93,10.0,NNE,4.6,-,N/A,,Partly Cloudy,30,2013-06-15 19:56:00
3:56 PM,80.1,63.0,56,29.92,10.0,Variable,3.5,-,N/A,,Partly Cloudy,0,2013-06-15 20:56:00
4:56 PM,81.0,60.1,49,29.90,10.0,NW,5.8,-,N/A,,Partly Cloudy,310,2013-06-15 21:56:00
5:56 PM,80.1,57.0,45,29.89,10.0,Calm,Calm,-,N/A,,Partly Cloudy,0,2013-06-15 22:56:00
6:56 PM,80.1,57.0,45,29.88,10.0,North,3.5,-,N/A,,Partly Cloudy,350,2013-06-15 23:56:00
7:56 PM,79.0,57.9,48,29.88,10.0,Calm,Calm,-,N/A,,Clear,0,2013-06-16 00:56:00
8:56 PM,73.9,62.1,66,29.89,10.0,NNW,3.5,-,N/A,,Clear,340,2013-06-16 01:56:00
9:56 PM,68.0,55.9,65,29.93,10.0,NNW,4.6,-,N/A,,Clear,330,2013-06-16 02:56:00
10:56 PM,66.0,55.9,70,29.95,10.0,Calm,Calm,-,N/A,,Clear,0,2013-06-16 03:56:00
11:56 PM,63.0,57.0,81,29.96,10.0,Calm,Calm,-,N/A,,Clear,0,2013-06-16 04:56:00